Probability
0 0 0 0 0 0 0 0 0 0 0 0 0 0 0 0 0 0 0 0 0 0 0 0 0 0 0 0 0 0 0 0 0 0 0 0 0 0 0 0 0 0 0
0 0 0 0 0 0 0 0 0 0 0 0 0 0 0 0 0 0 0 0 0 0 0 0 0 0 0 0 0 0 0 0 0 0 0 0 0 0 0 0 0 0 0
0 0 0 0 0 0 0 0 0 0 0 0 0 0 0 0 0 0 0 0 0 0 0 0 0 0 0 0 0 0 0 0 0 0 0 0 0 0 0 0 0 0 0
0 0 0 0 0 0 0 0 0 0 0 0 0 0 0 0 0 0 0 0 0 0 0 0 0 0 0 0 0 0 0 0 0 0 0 0 0 0 0 0 0 0 0
0 0 0 0 0 0 0 0 0 0 0 0 0 0 0 0 0 0 0 0 0 0 0 0 0 0 0 0 0 0 0 0 0 0 0 0 0 0 0 0 0 0 0
0 0 0 0 0 0 0 0 0 0 0 0 0 0 0 0 0 0 0 0 0 0 0 0 0 0 0 0 0 0 0 0 0 0 0 0 0 0 0 0 0 0 0
0 0 0 0 0 0 0 0 0 0 0 0 0 0 0 0 0 0 0 0 0 0 0 0 0 0 0 0 0 0 0 0 0 0 0 0 0 0 0 0 0 0 0
0 0 0 0 0 0 0 0 0 0 0 0 0 0 0 0 0 0 0 0 0 0 0 0 0 0 0 0 0 0 0 0 0 0 0 0 0 0 0 0 0 0 0
0 0 0 0 0 0 0 0 0 0 0 0 0 0 0 0 0 0 0 0 0 0 0 0 0 0 0 0 0 0 0 0 0 0 0 0 0 0 0 0 0 0 0
0 0 0 0 0 0 0 0 0 0 0 0 0 0 0 0 0 0 0 0 0 0 0 0 0 0 0 0 0 0 0 0 0 0 0 0 0 0 0 0 0 0 0
0 0 0 0 0 0 0 0 0 0 0 0 0 0 0 0 0 0 0 0 0 0 0 0 0 0 0 0 0 0 0 0 0 0 0 0 0 0 0 0 0 0 0
0 0 0 0 0 0 0 0 0 0 0 0 0 0 0 0 0 0 0 0 0 0 0 0 0 0 0 0 0 0 0 0 0 0 0 0 0 0 0 0 0 0 0
0 0 0 0 0 0 0 0 0 0 0 0 0 0 0 0 0 0 0 0 0 0 0 0 0 0 0 0 0 0 0 0 0 0 0 0 0 0 0 0 0 0 0
0 0 0 0 0 0 0 0 0 0 0 0 0 0 0 0 0 0 0 0 0 0 0 0 0 0 0 0 0 0 0 0 0 0 0 0 0 0 0 0 0 0 0
0 0 0 0 0 0 0 0 0 0 0 0 0 0 0 0 0 0 0 0 0 0 0 0 0 0 0 0 0 0 0 0 0 0 0 0 0 0 0 0 0 0 0
0 0 0 0 0 0 0 0 0 0 0 0 0 0 0 0 0 0 0 0 0 0 0 0 0 0 0 0 0 0 0 0 0 0 0 0 0 0 0 0 0 0 0
0 0 0 0 0 0 0 0 0 0 0 0 0 0 0 0 0 0 0 0 0 0 0 0 0 0 0 0 0 0 0 0 0 0 0 0 0 0 0 0 0 0 0
0 0 0 0 0 0 0 0 0 0 0 0 0 0 0 0 0 0 0 0 0 0 0 0 0 0 0 0 0 0 0 0 0 0 0 0 0 0 0 0 0 0 0
0 0 0 0 0 0 0 0 0 0 0 0 0 0 0 0 0 0 0 0 0 0 0 0 0 0 0 0 0 0 0 0 0 0 0 0 0 0 0 0 0 0 0
0 0 0 0 0 0 0 0 0 0 0 0 0 0 0 0 0 0 0 0 0 0 0 0 0 0 0 0 0 0 0 0 0 0 0 0 0 0 0 0 0 0 0
0 0 0 0 0 0 0 0 0 0 0 0 0 0 0 0 0 0 0 0 0 0 0 0 0 0 0 0 0 0 0 0 0 0 0 0 0 0 0 0 0 0 0
0 0 0 0 0 0 0 0 0 0 0 0 0 0 0 0 0 0 0 0 0 0 0 0 0 0 0 0 0 0 0 0 0 0 0 0 0 0 0 0 0 0 0
0 0 0 0 0 0 0 0 0 0 0 0 0 0 0 0 0 0 0 0 0 0 0 0 0 0 0 0 0 0 0 0 0 0 0 0 0 0 0 0 0 0 0
0 0 0 0 0 0 0 0 0 0 0 0 0 0 0 0 0 0 0 0 0 0 0 0 0 0 0 0 0 0 0 0 0 0 0 0 0 0 0 0 0 0 0
0 0 0 0 0 0 0 0 0 0 0 0 0 0 0 0 0 0 0 0 0 0 0 0 0 0 0 0 0 0 0 0 0 0 0 0 0 0 0 0 0 0 0
0 0 0 0 0 0 0 0 0 0 0 0 0 0 0 0 0 0 0 0 0 0 0 0 0 0 0 0 0 0 0 0 0 0 0 0 0 0 0 0 0 0 0
Wind_Speed
10 10 9 9 8 7 7 9 8 7 7 7 6 6 5 5 4 3 3 3 4 5 6 7 8 7 6 6 5 6 6 5 5 3 1 1 2 3 4 5 5 5 6
11 11 11 11 9 8 9 10 9 9 8 8 7 6 7 6 5 5 5 3 3 4 5 6 7 6 8 6 6 7 6 6 5 5 2 2 2 4 6 6 5 5 6
12 11 12 12 11 11 11 11 10 10 9 8 7 8 8 7 6 6 6 5 5 4 4 5 6 6 8 6 7 7 6 5 5 4 3 2 2 4 6 6 7 6 6
12 12 13 14 14 13 11 10 10 10 9 9 9 9 9 8 7 7 6 6 6 6 5 5 5 7 8 8 7 8 7 6 6 5 4 3 3 5 6 6 6 5 5
11 12 13 14 13 13 12 11 10 10 11 10 9 9 8 7 8 8 7 7 6 6 6 6 6 8 10 8 7 8 8 7 6 6 5 5 5 6 6 5 7 7 5
11 13 13 13 13 13 12 11 10 10 9 9 9 9 9 8 10 13 9 7 6 6 6 6 6 8 10 11 13 12 12 10 9 8 7 7 8 7 7 9 9 8 5
12 13 13 12 13 12 13 12 10 9 9 9 9 9 9 10 13 13 13 8 7 7 7 6 5 5 7 7 9 12 13 14 12 10 9 10 10 11 12 12 10 6 5
13 13 13 12 13 12 11 11 10 8 7 8 9 9 9 10 12 13 13 9 7 8 8 7 7 6 6 6 6 8 8 10 12 11 10 9 9 12 13 12 12 9 9
14 14 13 13 13 13 12 11 10 8 7 7 7 8 8 9 11 12 10 5 6 8 7 7 7 7 8 8 8 8 8 8 9 12 11 10 13 16 15 13 12 12 10
14 14 14 13 14 14 13 11 9 8 8 8 8 8 8 8 10 12 10 5 6 6 5 5 7 8 7 8 8 8 9 8 7 8 9 11 13 17 20 16 15 14 12
14 14 14 13 13 13 12 10 9 8 8 8 8 7 7 9 10 12 11 6 7 6 5 4 5 7 8 8 9 8 8 7 7 8 8 9 10 12 12 10 10 13 13
13 13 13 12 11 10 9 8 8 8 7 7 6 7 6 7 8 10 12 12 10 7 6 5 4 6 7 7 7 7 9 9 6 7 8 9 10 11 10 10 9 7 5
13 13 12 12 10 9 8 8 6 6 5 5 5 6 5 5 6 10 11 12 13 7 5 6 6 5 5 5 6 8 9 8 7 7 8 8 8 10 10 9 9 8 9
13 12 11 10 9 8 6 6 5 4 5 5 6 6 5 4 4 4 5 6 8 7 5 5 5 4 3 3 3 5 6 6 7 7 7 8 9 10 10 10 10 9 8
12 11 10 9 9 7 6 5 5 5 5 5 5 5 5 5 6 8 6 5 6 6 6 3 3 3 3 3 3 4 4 5 6 7 9 10 10 9 9 8 8 8 7
10 9 7 7 7 6 6 6 5 5 6 7 6 4 4 5 5 7 9 7 8 10 7 4 4 4 4 4 4 4 4 5 7 9 10 10 10 10 9 8 8 8 8
10 9 7 6 6 6 5 5 5 3 3 2 1 3 4 2 2 4 6 7 8 10 5 4 5 5 4 4 4 4 4 5 6 8 10 10 10 10 10 10 9 8 7
9 9 8 6 5 5 5 4 3 3 2 3 5 5 3 3 4 7 10 8 5 4 4 4 5 5 4 4 4 4 5 6 7 8 9 9 9 9 9 9 9 9 8
7 6 5 5 5 4 4 3 3 3 2 2 3 4 6 7 7 7 6 3 4 5 4 4 4 4 4 4 4 5 6 7 8 8 9 9 9 9 9 8 8 10 8
6 9 7 4 5 5 4 3 3 2 2 2 2 2 2 2 3 3 2 2 3 3 4 4 4 4 4 4 5 6 7 7 8 8 9 9 8 8 9 10 9 9 7
5 6 8 5 4 4 4 3 3 2 2 2 2 2 1 2 2 2 1 1 2 2 3 3 3 4 5 5 5 7 8 7 7 8 9 8 9 8 8 8 8 8 7
5 4 3 3 3 4 4 3 2 2 2 2 2 2 2 2 2 1 0 0 1 2 2 2 3 4 5 6 7 7 7 8 7 8 8 8 8 8 8 8 7 7 8
5 4 3 3 2 4 4 4 3 3 2 2 2 2 2 1 1 1 1 1 1 1 1 2 3 4 4 5 5 7 8 8 8 9 9 9 8 8 8 8 9 9 8
5 4 3 3 2 2 3 3 3 3 2 2 2 2 1 1 1 1 1 1 2 2 2 2 3 5 6 5 5 5 6 8 9 9 12 10 9 8 7 8 8 10 9
6 5 4 2 2 1 2 2 2 2 2 2 2 1 1 1 2 2 2 2 2 2 3 3 2 4 7 8 7 7 9 11 10 9 9 9 10 9 8 9 8 8 7
7 7 5 3 2 1 1 1 2 2 2 2 2 2 2 2 2 2 2 2 3 3 3 2 2 3 6 7 9 11 10 10 10 11 9 8 9 8 8 7 9 8 8
Wind_Direction
275 272 269 262 252 245 242 246 246 245 242 244 251 259 265 266 260 257 255 253 249 238 224 217 218 206 200 196 191 192 198 202 230 240 218 175 140 121 95 83 74 71 80
273 272 271 269 262 249 244 245 241 240 238 236 241 249 257 258 248 243 251 245 244 257 244 226 224 214 211 199 192 196 197 200 212 229 214 184 165 145 124 106 89 80 81
283 280 278 275 270 260 250 244 238 234 236 233 229 237 247 251 248 243 239 236 226 231 249 244 234 219 219 206 198 199 197 194 199 211 212 186 154 145 129 109 99 92 87
293 288 283 278 274 268 259 247 239 232 230 231 228 230 236 243 246 245 240 238 233 223 223 238 244 228 225 213 204 202 191 188 193 205 209 197 169 152 141 132 120 103 95
295 292 288 285 281 276 269 258 246 234 231 228 227 229 232 235 240 237 234 236 231 229 226 223 233 241 238 222 206 198 188 190 192 201 201 193 177 165 156 142 132 116 91
292 291 290 289 287 282 276 268 257 244 234 225 223 225 227 232 235 232 223 225 228 229 235 234 235 243 243 233 221 204 192 191 195 198 200 198 186 167 152 147 142 141 128
290 290 290 289 288 286 284 278 264 251 239 228 224 221 225 231 236 241 238 225 225 229 232 236 245 239 237 230 224 213 207 204 199 198 201 200 184 170 159 157 157 147 131
293 290 289 288 287 285 283 280 273 261 246 237 229 221 220 231 233 238 243 235 227 231 231 231 236 246 237 226 216 215 214 213 212 213 215 204 186 171 166 154 142 116 108
299 296 293 289 287 284 280 276 272 264 254 242 233 222 219 231 234 237 237 223 226 232 232 231 230 240 240 225 217 215 216 219 217 215 213 198 172 161 151 141 141 139 138
303 300 296 288 283 281 277 273 269 261 254 248 240 225 221 230 235 237 231 215 223 229 230 229 231 234 238 221 218 214 217 213 195 195 195 181 168 159 158 158 155 152 147
305 302 298 291 285 281 276 269 263 257 250 241 239 235 228 230 237 237 229 211 214 218 220 221 226 227 229 221 218 221 217 198 189 185 176 167 161 161 161 157 157 157 157
306 303 301 298 293 292 282 273 264 253 243 238 235 240 238 233 233 238 231 218 207 207 212 215 222 226 226 222 217 223 206 190 186 179 171 164 160 160 157 151 146 142 132
308 305 304 304 301 293 285 280 270 254 239 230 228 236 240 232 232 233 231 220 206 202 207 207 211 222 223 222 222 211 194 192 185 178 169 158 150 147 141 133 123 111 102
310 309 308 309 307 301 289 280 270 254 241 230 226 230 233 232 228 221 215 209 202 199 196 193 194 204 207 213 203 199 201 194 182 169 149 137 134 139 143 144 144 138 126
314 312 312 309 308 307 300 286 273 256 244 230 225 218 218 228 226 207 193 189 183 182 165 165 183 189 202 207 197 186 192 178 163 145 141 140 140 139 141 145 144 144 143
318 318 314 314 315 315 315 313 290 270 263 239 235 230 231 235 237 209 204 195 175 162 161 179 193 197 202 203 191 175 181 167 152 145 143 141 143 144 142 144 149 153 150
318 317 314 318 322 325 325 325 328 349 32 45 256 236 236 237 211 180 172 161 159 162 178 192 197 200 198 192 188 176 167 154 145 142 140 138 138 142 147 152 157 159 159
320 319 322 321 323 325 326 329 332 348 23 46 42 50 72 85 110 132 139 134 144 177 201 204 204 199 192 187 176 163 150 144 139 134 133 134 138 142 147 152 157 159 156
320 319 320 326 330 330 336 347 3 22 43 55 59 56 67 82 94 120 141 152 168 187 202 209 201 192 178 171 160 149 145 142 140 136 135 138 141 143 145 149 150 151 153
318 326 339 339 342 346 352 1 14 33 48 58 63 65 71 87 105 126 151 170 185 191 192 192 183 177 162 154 147 140 138 137 138 137 138 139 141 143 145 147 150 157 162
318 324 341 349 350 350 354 3 10 26 43 57 55 51 67 92 110 125 144 169 177 175 175 175 171 161 148 142 140 137 138 138 140 140 140 142 142 142 144 147 151 152 149
319 321 327 336 348 355 357 6 21 40 60 71 71 71 76 80 90 104 70 7 133 145 158 153 145 140 138 139 140 142 142 141 142 142 142 143 143 143 144 145 147 149 149
328 330 331 337 353 5 15 22 32 45 59 68 72 75 80 75 67 65 50 76 96 114 123 118 119 121 124 132 144 149 151 155 155 150 146 145 146 147 148 151 153 155 161
337 336 339 341 355 18 23 25 35 48 59 62 69 72 67 57 47 43 53 77 82 85 94 108 113 125 135 142 153 157 155 149 149 150 148 148 149 149 151 154 161 168 169
346 343 342 343 350 15 32 33 36 44 50 49 50 52 55 53 49 51 44 50 63 69 76 89 104 129 148 155 154 147 140 139 142 145 146 146 150 153 157 160 162 164 165
354 352 349 348 347 350 19 46 50 55 52 43 42 50 54 53 53 62 60 49 48 51 54 66 92 120 138 149 146 139 140 142 144 145 147 148 151 158 161 164 168 170 170